Temp
-5 -5 -5 -5 -5 -4 -4 -5 -5 -5 -6 -6 -6 -6 -6 -6 -6 -6 -5 -5 -5 -5 -5 -4 -4 -4 -4 -4 -4 -4 -4 -4 -4 -4 -4 -4 -4 -4 -4 -4 -4 -4 -4 -4 -4 -5 -5 -5 -5
-6 -6 -5 -5 -5 -5 -4 -5 -5 -5 -6 -6 -6 -6 -7 -7 -6 -6 -6 -6 -5 -5 -5 -5 -4 -4 -4 -4 -4 -4 -4 -4 -4 -4 -4 -4 -4 -4 -5 -5 -5 -5 -5 -5 -5 -5 -5 -6 -6
-6 -6 -6 -6 -6 -6 -5 -5 -6 -6 -6 -6 -6 -7 -7 -7 -7 -7 -6 -6 -6 -6 -5 -5 -5 -5 -5 -5 -5 -4 -4 -4 -4 -4 -4 -5 -5 -5 -5 -5 -5 -5 -5 -6 -6 -6 -6 -6 -6
-6 -7 -7 -6 -6 -6 -6 -6 -6 -6 -6 -6 -7 -7 -7 -7 -7 -7 -7 -7 -6 -6 -6 -6 -5 -5 -5 -5 -5 -5 -4 -4 -5 -5 -5 -5 -6 -6 -6 -6 -6 -6 -6 -6 -6 -6 -6 -6 -6
-6 -6 -6 -7 -6 -6 -6 -6 -6 -7 -7 -7 -6 -7 -7 -7 -8 -8 -7 -7 -7 -7 -6 -6 -6 -6 -6 -5 -5 -5 -5 -5 -5 -5 -5 -6 -6 -6 -6 -6 -6 -6 -7 -7 -7 -6 -7 -6 -6
-6 -6 -6 -6 -6 -6 -6 -6 -6 -7 -7 -7 -7 -7 -7 -8 -8 -8 -8 -7 -7 -7 -7 -7 -6 -6 -6 -6 -5 -5 -5 -5 -5 -6 -6 -6 -7 -7 -7 -7 -7 -7 -7 -7 -7 -7 -7 -7 -6
-6 -6 -6 -6 -6 -6 -6 -7 -6 -7 -7 -7 -7 -7 -8 -8 -9 -8 -8 -8 -8 -7 -7 -7 -7 -6 -6 -6 -6 -6 -6 -6 -6 -7 -7 -7 -7 -7 -7 -7 -8 -8 -8 -7 -7 -7 -7 -7 -6
-7 -6 -6 -6 -7 -7 -7 -7 -7 -7 -7 -8 -8 -8 -8 -9 -9 -9 -9 -8 -8 -8 -8 -7 -7 -7 -7 -7 -6 -6 -6 -7 -7 -8 -8 -7 -8 -7 -8 -8 -8 -8 -8 -8 -8 -7 -7 -6 -6
-7 -7 -7 -7 -7 -7 -7 -8 -8 -8 -8 -9 -9 -9 -9 -9 -9 -9 -9 -9 -8 -8 -8 -8 -8 -8 -8 -7 -8 -7 -7 -8 -8 -8 -8 -8 -8 -8 -8 -8 -8 -8 -8 -8 -8 -7 -7 -6 -6
-7 -7 -7 -7 -7 -7 -7 -8 -8 -8 -8 -9 -9 -9 -10 -10 -10 -10 -9 -9 -9 -9 -9 -9 -9 -9 -9 -9 -9 -9 -9 -9 -9 -9 -8 -8 -8 -8 -8 -8 -8 -8 -8 -8 -8 -7 -7 -7 -6
-8 -8 -8 -8 -8 -8 -8 -8 -8 -8 -9 -9 -10 -11 -11 -11 -11 -10 -10 -10 -10 -10 -10 -10 -10 -10 -10 -10 -10 -10 -10 -9 -9 -9 -9 -9 -9 -9 -9 -9 -9 -9 -9 -8 -8 -8 -7 -7 -6
-8 -8 -8 -9 -8 -8 -8 -9 -9 -9 -9 -9 -10 -11 -12 -11 -11 -11 -10 -10 -10 -10 -10 -10 -10 -10 -10 -10 -10 -10 -10 -10 -10 -10 -10 -10 -9 -9 -9 -9 -9 -9 -9 -9 -8 -8 -7 -7 -7
-8 -8 -8 -9 -9 -9 -9 -9 -9 -9 -9 -10 -10 -11 -11 -11 -11 -11 -11 -11 -10 -10 -10 -10 -10 -10 -10 -10 -10 -10 -11 -11 -11 -11 -10 -10 -10 -10 -9 -9 -9 -9 -9 -9 -8 -8 -8 -7 -7
-8 -8 -8 -8 -9 -9 -9 -9 -9 -9 -10 -11 -11 -11 -11 -11 -11 -11 -10 -10 -10 -10 -10 -10 -10 -10 -10 -10 -11 -11 -11 -11 -11 -11 -11 -10 -10 -10 -9 -9 -9 -9 -9 -9 -9 -8 -8 -8 -7
-8 -8 -8 -8 -8 -9 -9 -9 -9 -9 -10 -11 -11 -11 -11 -11 -11 -11 -10 -10 -10 -10 -10 -10 -10 -10 -10 -10 -11 -11 -11 -11 -11 -11 -11 -10 -10 -10 -9 -9 -9 -9 -9 -9 -8 -8 -8 -8 -7
-8 -8 -8 -8 -8 -9 -9 -9 -10 -10 -10 -11 -11 -11 -11 -11 -11 -11 -11 -10 -10 -10 -10 -10 -10 -10 -10 -10 -11 -11 -11 -11 -11 -11 -11 -10 -10 -10 -9 -9 -9 -8 -8 -8 -8 -8 -8 -8 -8
-8 -8 -8 -8 -8 -9 -9 -9 -9 -10 -10 -11 -11 -11 -11 -11 -11 -11 -11 -11 -10 -10 -10 -10 -10 -10 -10 -10 -11 -11 -11 -11 -11 -11 -11 -10 -10 -10 -9 -9 -9 -8 -8 -8 -8 -8 -8 -8 -8
-8 -8 -8 -9 -9 -9 -9 -9 -9 -10 -10 -10 -11 -11 -11 -11 -11 -11 -11 -11 -11 -11 -10 -10 -10 -10 -10 -10 -11 -11 -11 -11 -11 -11 -11 -11 -10 -10 -9 -9 -8 -8 -8 -8 -8 -8 -8 -7 -7
-8 -8 -8 -9 -9 -9 -9 -9 -9 -9 -10 -10 -10 -10 -11 -11 -11 -11 -11 -10 -11 -11 -11 -10 -10 -10 -10 -10 -10 -11 -11 -11 -11 -11 -11 -11 -10 -10 -9 -9 -8 -8 -8 -8 -7 -7 -7 -7 -7
-8 -8 -8 -8 -9 -9 -9 -9 -9 -9 -9 -9 -10 -10 -10 -10 -10 -10 -10 -10 -10 -10 -10 -10 -10 -10 -10 -10 -10 -10 -11 -11 -11 -11 -11 -11 -10 -10 -9 -9 -8 -8 -8 -7 -7 -7 -7 -7 -7
-9 -9 -9 -9 -9 -9 -9 -9 -9 -10 -10 -9 -9 -10 -10 -9 -10 -10 -10 -10 -10 -10 -10 -10 -10 -10 -10 -10 -10 -10 -10 -11 -11 -10 -10 -10 -10 -10 -10 -9 -8 -8 -7 -7 -7 -7 -7 -7 -7
-9 -9 -9 -9 -9 -9 -9 -9 -9 -10 -9 -9 -9 -9 -9 -10 -9 -9 -10 -10 -9 -9 -9 -10 -10 -10 -10 -10 -10 -10 -10 -10 -10 -10 -10 -10 -10 -10 -10 -9 -9 -8 -7 -7 -7 -7 -7 -7 -6
-10 -10 -9 -10 -9 -9 -9 -9 -9 -9 -9 -9 -9 -9 -9 -9 -10 -9 -9 -9 -9 -9 -9 -9 -10 -10 -10 -10 -10 -10 -10 -10 -10 -10 -10 -10 -10 -10 -10 -9 -9 -8 -8 -7 -7 -7 -7 -6 -6
-10 -10 -10 -10 -10 -10 -10 -9 -9 -9 -9 -10 -10 -10 -10 -10 -9 -10 -10 -10 -10 -10 -9 -9 -10 -10 -10 -10 -10 -10 -10 -10 -10 -10 -10 -10 -10 -10 -10 -9 -9 -9 -8 -8 -8 -7 -7 -7 -7
-11 -11 -10 -10 -10 -10 -10 -10 -10 -10 -10 -10 -10 -10 -10 -10 -10 -10 -10 -10 -10 -10 -10 -10 -10 -10 -10 -10 -10 -10 -10 -10 -10 -10 -10 -10 -10 -10 -10 -9 -10 -9 -9 -9 -9 -8 -8 -8 -8
-11 -11 -11 -11 -11 -11 -11 -10 -10 -10 -10 -10 -10 -10 -10 -10 -10 -10 -10 -10 -10 -11 -11 -11 -11 -11 -11 -10 -10 -10 -10 -10 -10 -10 -9 -9 -10 -10 -10 -10 -10 -10 -9 -9 -9 -9 -9 -9 -9
-12 -12 -12 -12 -12 -12 -11 -11 -11 -11 -11 -11 -11 -11 -11 -11 -11 -11 -11 -11 -11 -11 -11 -11 -11 -11 -11 -11 -11 -11 -10 -10 -10 -10 -10 -9 -9 -10 -10 -10 -10 -10 -10 -9 -9 -9 -10 -9 -9
-12 -12 -12 -13 -12 -12 -12 -12 -12 -12 -12 -12 -12 -12 -12 -11 -11 -11 -11 -11 -11 -11 -11 -11 -11 -11 -11 -11 -11 -11 -11 -10 -10 -10 -10 -10 -10 -10 -9 -9 -10 -10 -10 -10 -10 -10 -10 -10 -10
-13 -13 -13 -13 -13 -13 -13 -12 -13 -13 -12 -12 -12 -12 -13 -13 -13 -13 -12 -12 -12 -12 -12 -12 -12 -12 -12 -11 -11 -11 -11 -11 -10 -10 -10 -10 -10 -10 -10 -10 -9 -9 -10 -10 -10 -10 -10 -10 -10
-13 -14 -14 -14 -14 -14 -14 -13 -13 -13 -13 -13 -13 -13 -13 -13 -13 -13 -13 -13 -13 -13 -13 -13 -12 -12 -12 -12 -11 -11 -11 -11 -11 -11 -10 -10 -10 -10 -10 -10 -10 -10 -9 -9 -9 -10 -10 -10 -10
Height
5855 5855 5856 5857 5860 5859 5859 5862 5862 5864 5865 5866 5866 5868 5872 5872 5874 5876 5875 5875 5876 5877 5878 5878 5879 5879 5880 5880 5881 5881 5881 5880 5879 5879 5879 5879 5878 5878 5878 5879 5880 5880 5881 5882 5882 5882 5883 5884 5885
5851 5851 5853 5853 5855 5855 5855 5858 5859 5861 5862 5863 5864 5865 5868 5870 5871 5871 5873 5873 5874 5875 5876 5876 5877 5878 5878 5879 5879 5880 5880 5879 5878 5878 5877 5877 5877 5878 5878 5879 5880 5881 5881 5881 5882 5882 5884 5884 5885
5847 5848 5849 5850 5850 5851 5852 5854 5856 5858 5859 5859 5861 5862 5864 5866 5868 5868 5869 5871 5872 5873 5873 5874 5875 5876 5876 5877 5877 5877 5877 5877 5877 5877 5876 5876 5876 5877 5878 5878 5879 5880 5881 5880 5881 5883 5885 5885 5887
5844 5845 5846 5847 5846 5848 5851 5852 5853 5855 5856 5856 5857 5858 5860 5862 5864 5865 5867 5869 5870 5870 5871 5872 5873 5873 5874 5875 5875 5875 5875 5875 5875 5875 5874 5874 5875 5876 5878 5878 5878 5879 5881 5882 5883 5884 5885 5886 5889
5841 5842 5842 5843 5844 5847 5848 5849 5851 5852 5853 5853 5854 5855 5857 5859 5861 5862 5864 5866 5867 5868 5869 5869 5870 5871 5871 5872 5872 5873 5873 5873 5873 5873 5873 5873 5874 5875 5876 5877 5878 5879 5880 5882 5883 5885 5887 5888 5890
5839 5840 5840 5841 5842 5845 5847 5848 5849 5850 5850 5851 5852 5853 5853 5855 5857 5859 5861 5863 5865 5866 5866 5867 5867 5868 5868 5869 5869 5870 5870 5870 5871 5871 5871 5872 5872 5874 5875 5877 5878 5878 5879 5882 5884 5885 5888 5889 5891
5838 5838 5838 5838 5840 5843 5845 5846 5846 5847 5848 5849 5849 5850 5851 5852 5854 5856 5857 5860 5862 5863 5864 5864 5865 5865 5866 5866 5867 5867 5867 5868 5868 5868 5869 5870 5871 5872 5874 5876 5876 5878 5880 5882 5884 5886 5889 5891 5893
5837 5836 5836 5837 5839 5842 5843 5844 5844 5845 5845 5846 5846 5846 5847 5848 5850 5853 5854 5856 5857 5859 5860 5861 5862 5863 5863 5864 5864 5864 5865 5865 5865 5866 5867 5868 5870 5871 5873 5874 5876 5878 5880 5883 5885 5887 5890 5892 5895
5835 5835 5835 5835 5835 5837 5839 5840 5841 5841 5841 5840 5840 5841 5842 5843 5846 5849 5851 5852 5854 5856 5857 5858 5859 5860 5861 5861 5861 5862 5862 5863 5863 5864 5865 5866 5868 5869 5871 5873 5876 5878 5880 5883 5886 5888 5890 5893 5895
5834 5834 5833 5833 5833 5833 5835 5835 5835 5836 5835 5833 5833 5836 5837 5839 5841 5844 5848 5849 5851 5853 5854 5855 5856 5857 5858 5858 5859 5860 5860 5860 5861 5862 5863 5865 5866 5868 5870 5872 5875 5877 5880 5883 5885 5888 5891 5893 5896
5833 5832 5832 5831 5831 5830 5830 5831 5831 5831 5830 5828 5827 5831 5833 5835 5837 5840 5843 5846 5848 5850 5851 5853 5854 5854 5855 5856 5857 5858 5858 5859 5859 5860 5861 5863 5864 5866 5869 5871 5874 5877 5879 5882 5885 5888 5890 5893 5895
5833 5831 5830 5830 5829 5828 5828 5828 5828 5826 5824 5822 5822 5826 5829 5831 5834 5837 5840 5842 5845 5847 5849 5850 5851 5852 5853 5854 5856 5856 5857 5857 5858 5858 5859 5861 5862 5865 5867 5870 5873 5876 5879 5881 5884 5887 5889 5891 5894
5832 5830 5829 5828 5828 5827 5826 5826 5824 5822 5820 5818 5820 5822 5825 5829 5832 5834 5837 5839 5842 5844 5846 5847 5849 5850 5852 5853 5854 5855 5856 5856 5856 5857 5858 5859 5861 5863 5865 5868 5871 5874 5877 5880 5883 5885 5887 5890 5893
5831 5829 5828 5827 5827 5826 5825 5823 5821 5820 5818 5816 5817 5820 5824 5827 5831 5833 5834 5837 5839 5842 5844 5845 5846 5848 5850 5851 5852 5853 5853 5854 5854 5855 5857 5858 5860 5862 5864 5867 5870 5872 5876 5879 5882 5884 5886 5888 5891
5830 5829 5827 5826 5824 5824 5823 5822 5820 5819 5817 5816 5818 5820 5823 5826 5829 5830 5832 5834 5836 5839 5841 5843 5844 5846 5847 5848 5849 5850 5851 5851 5852 5853 5854 5856 5858 5860 5863 5865 5868 5871 5874 5877 5880 5882 5884 5887 5889
5829 5828 5826 5825 5823 5823 5822 5821 5819 5818 5816 5815 5818 5821 5823 5826 5828 5829 5831 5832 5833 5835 5837 5840 5842 5843 5844 5845 5846 5848 5848 5849 5850 5851 5851 5853 5855 5857 5860 5863 5866 5869 5871 5875 5877 5880 5882 5884 5886
5828 5826 5825 5824 5823 5822 5821 5820 5818 5817 5816 5815 5816 5818 5820 5822 5824 5824 5826 5828 5830 5832 5834 5835 5838 5839 5841 5843 5844 5845 5846 5846 5847 5848 5849 5850 5852 5854 5857 5860 5863 5866 5869 5872 5874 5877 5879 5881 5883
5827 5825 5824 5823 5823 5822 5820 5819 5817 5816 5815 5814 5816 5817 5819 5820 5822 5825 5826 5828 5829 5830 5831 5832 5833 5835 5837 5839 5840 5841 5841 5842 5844 5845 5846 5847 5849 5851 5853 5856 5859 5862 5865 5868 5871 5874 5876 5878 5880
5826 5824 5823 5822 5821 5820 5819 5818 5817 5815 5814 5813 5813 5814 5816 5818 5820 5822 5824 5825 5826 5827 5828 5828 5830 5831 5833 5834 5836 5837 5838 5840 5841 5842 5844 5844 5846 5848 5850 5852 5854 5858 5861 5864 5867 5869 5872 5874 5876
5824 5823 5822 5821 5819 5819 5817 5816 5814 5813 5812 5811 5811 5811 5813 5815 5817 5818 5820 5822 5823 5823 5824 5825 5826 5827 5828 5830 5831 5833 5834 5836 5837 5838 5838 5840 5842 5845 5847 5848 5851 5853 5856 5859 5861 5864 5867 5869 5871
5823 5822 5821 5820 5819 5817 5815 5813 5812 5811 5809 5809 5808 5808 5809 5811 5812 5814 5815 5817 5818 5818 5819 5820 5821 5822 5824 5825 5827 5829 5830 5832 5833 5834 5836 5839 5840 5841 5842 5843 5846 5848 5850 5853 5855 5858 5860 5863 5865
5821 5820 5819 5817 5816 5814 5813 5812 5809 5807 5806 5806 5805 5804 5805 5806 5807 5808 5809 5811 5811 5812 5812 5813 5815 5817 5819 5820 5822 5824 5826 5827 5828 5830 5832 5834 5835 5836 5837 5839 5841 5843 5845 5846 5849 5851 5853 5855 5858
5817 5816 5815 5814 5813 5812 5809 5808 5806 5805 5803 5802 5801 5800 5800 5801 5801 5802 5803 5804 5804 5805 5805 5807 5809 5811 5812 5815 5816 5819 5820 5822 5823 5824 5827 5829 5830 5832 5833 5834 5835 5837 5838 5840 5842 5844 5846 5848 5850
5811 5810 5809 5808 5808 5807 5805 5804 5802 5802 5800 5797 5796 5796 5795 5795 5795 5796 5797 5797 5798 5798 5798 5799 5800 5803 5805 5808 5811 5814 5816 5818 5818 5820 5822 5824 5825 5826 5827 5828 5830 5831 5833 5834 5835 5837 5839 5840 5842
5804 5803 5802 5802 5801 5801 5799 5799 5799 5797 5795 5794 5792 5791 5790 5790 5790 5790 5791 5791 5791 5792 5792 5792 5794 5796 5798 5801 5804 5807 5810 5812 5813 5814 5817 5818 5820 5821 5821 5823 5824 5825 5826 5828 5830 5831 5833 5835 5836
5797 5797 5796 5793 5794 5793 5791 5791 5793 5791 5790 5789 5788 5787 5786 5785 5785 5785 5785 5785 5785 5785 5786 5786 5788 5790 5792 5794 5796 5799 5801 5804 5805 5806 5808 5811 5813 5815 5816 5817 5819 5820 5820 5821 5823 5825 5827 5829 5830
5790 5789 5788 5786 5785 5784 5784 5785 5785 5785 5784 5783 5782 5781 5781 5780 5779 5778 5778 5779 5778 5778 5778 5779 5780 5782 5784 5785 5787 5790 5793 5795 5797 5798 5800 5803 5805 5806 5808 5810 5811 5812 5814 5815 5816 5818 5820 5822 5824
5783 5782 5781 5779 5777 5776 5775 5775 5775 5777 5776 5775 5774 5773 5774 5773 5772 5772 5771 5771 5771 5771 5771 5772 5772 5773 5775 5776 5778 5780 5783 5785 5787 5789 5791 5792 5794 5796 5798 5800 5802 5803 5805 5807 5808 5810 5811 5813 5816
5775 5774 5773 5772 5771 5768 5767 5767 5767 5767 5766 5766 5765 5764 5764 5764 5764 5764 5764 5763 5763 5763 5764 5763 5763 5764 5764 5766 5768 5770 5773 5775 5777 5779 5781 5783 5784 5786 5788 5790 5792 5793 5795 5796 5798 5801 5803 5805 5807
5766 5765 5764 5762 5762 5760 5758 5758 5757 5757 5757 5756 5755 5754 5754 5754 5755 5755 5755 5756 5755 5755 5755 5755 5755 5755 5755 5755 5757 5759 5761 5764 5766 5768 5770 5772 5774 5775 5777 5778 5780 5782 5785 5786 5788 5789 5790 5793 5795
Wind_Speed
18 17 18 20 20 21 22 20 21 21 22 22 22 22 19 18 17 18 17 16 16 14 13 12 11 10 9 9 7 6 6 7 7 8 8 7 5 4 3 3 2 2 2 2 3 3 3 4 5
20 18 18 19 19 21 23 21 22 22 22 23 23 22 20 19 17 18 18 17 16 15 15 13 12 11 11 11 9 8 8 8 7 10 9 8 6 5 4 4 4 4 5 5 4 2 3 5 7
17 18 17 17 17 20 19 18 16 19 22 24 24 23 22 21 19 18 17 17 16 14 14 14 13 12 12 13 11 10 9 8 8 9 11 10 7 6 6 6 6 5 6 5 4 5 6 9 13
15 15 16 17 19 17 13 13 13 14 15 20 25 24 24 23 21 19 17 15 15 14 14 13 15 14 13 13 12 11 10 9 8 9 11 10 9 8 8 7 6 7 7 6 7 8 12 15 15
12 13 15 17 18 15 13 12 9 9 10 13 18 22 26 24 22 20 17 16 15 15 15 14 15 15 14 14 13 12 11 9 8 9 11 10 10 9 8 8 8 9 8 8 10 14 15 16 17
10 11 14 18 18 15 11 11 10 10 12 12 14 17 23 26 24 22 17 16 16 15 15 15 15 14 13 12 12 11 9 9 8 10 11 11 12 11 10 10 10 10 10 13 14 15 15 17 20
9 12 13 15 14 10 9 11 11 10 13 14 15 17 20 23 25 21 19 17 16 16 16 16 14 13 13 11 11 9 8 8 8 10 11 12 13 13 12 12 11 13 14 14 15 15 17 19 22
9 12 13 13 12 10 11 13 14 14 15 15 18 19 20 22 25 21 19 18 18 17 17 15 14 13 12 10 10 9 8 8 8 10 12 14 14 14 14 14 15 17 17 17 17 17 19 20 20
7 10 12 14 15 14 15 15 15 17 17 17 22 21 21 23 25 21 19 20 19 18 17 15 14 12 11 10 9 8 8 8 9 11 13 14 15 15 15 17 19 19 19 18 19 19 19 20 20
7 7 10 15 17 17 17 17 18 17 17 21 24 22 22 24 23 20 19 20 19 18 16 15 13 12 10 8 8 7 6 7 9 11 14 16 17 17 16 21 21 21 21 19 18 18 18 19 18
9 8 9 11 14 16 16 16 16 15 17 22 27 20 22 23 19 18 19 20 18 17 16 15 14 11 10 9 7 6 5 7 9 11 13 14 17 19 21 23 23 23 21 20 18 18 19 18 18
9 10 10 10 11 11 12 15 14 15 18 22 26 21 24 23 19 17 18 19 18 18 15 15 13 12 10 9 8 7 7 7 9 11 12 14 17 21 25 25 25 24 22 20 19 18 18 17 18
10 11 10 9 8 9 12 14 12 17 19 17 19 24 25 22 17 16 17 18 19 19 17 15 15 13 12 11 11 10 9 8 10 11 13 14 18 22 25 27 26 25 22 20 19 18 18 18 18
11 12 12 9 9 9 11 12 13 14 13 10 17 24 23 21 16 14 17 18 19 20 19 17 17 15 14 13 12 12 11 11 11 13 14 16 18 22 25 26 26 25 23 22 19 17 17 18 17
11 11 12 10 11 11 10 10 12 13 11 9 15 21 22 22 16 14 15 18 20 22 21 20 19 18 17 15 14 13 13 13 13 15 17 18 20 23 26 27 25 24 24 22 18 17 16 17 17
11 11 10 11 12 12 12 9 8 7 6 7 15 18 20 20 18 13 10 17 20 22 23 21 20 21 20 18 16 15 14 14 15 16 18 20 22 25 27 27 26 23 23 21 19 18 17 17 16
10 11 12 10 11 12 12 8 6 7 8 10 19 20 21 23 20 20 16 14 18 20 23 24 22 23 21 19 18 16 16 16 16 18 19 21 23 26 28 27 26 26 25 22 20 19 18 18 17
11 12 12 12 12 11 12 11 10 8 8 9 22 22 21 22 22 18 17 15 13 15 21 24 24 24 23 21 21 20 20 19 17 18 20 21 24 28 29 28 27 25 25 24 21 21 21 21 20
9 11 13 12 13 12 11 12 9 9 9 11 14 26 24 24 24 22 21 19 17 16 16 24 25 26 25 24 24 23 21 18 16 16 18 21 26 29 30 29 26 25 24 23 23 24 25 24 23
10 12 13 14 14 13 13 12 13 11 11 11 12 20 28 26 25 25 25 24 22 21 20 19 25 27 28 27 26 25 23 19 17 18 21 26 29 30 29 26 25 24 24 25 26 27 27 27 27
13 14 14 16 15 14 14 13 14 14 14 13 13 13 22 28 29 29 29 26 27 27 27 23 24 29 30 30 29 28 26 22 20 23 27 28 28 29 28 26 26 25 26 27 28 29 30 30 31
18 19 18 19 20 20 18 16 14 16 16 15 15 15 15 19 31 33 34 33 33 33 33 31 27 30 32 33 32 31 29 26 23 25 28 28 29 31 29 26 25 26 27 29 30 31 31 33 33
23 23 23 23 23 22 24 23 18 19 19 19 19 17 17 18 21 29 35 37 37 37 37 35 33 31 34 36 35 34 32 30 25 25 27 28 30 30 28 27 26 27 28 30 30 30 31 33 34
28 28 28 28 28 28 27 27 26 21 21 21 21 22 21 21 22 24 27 31 33 35 38 38 37 35 36 37 38 36 35 34 30 27 28 30 30 30 29 29 28 28 28 29 29 29 29 30 32
33 34 34 35 32 31 31 31 29 28 24 24 24 24 25 25 25 24 26 28 29 30 32 34 36 36 37 39 39 39 37 37 34 29 28 28 30 31 32 31 30 29 28 29 31 29 27 26 26
33 33 33 35 35 36 34 34 31 31 30 28 27 27 27 27 28 27 27 28 29 30 31 33 34 36 37 41 41 42 40 40 40 37 32 32 32 30 31 31 31 31 30 30 32 33 31 29 27
31 31 31 32 34 36 38 37 35 33 33 33 33 32 31 29 29 30 30 29 30 29 32 34 37 38 38 41 45 45 45 43 42 41 37 35 35 34 33 32 31 31 31 31 32 34 36 34 33
33 33 33 33 35 36 37 37 38 35 35 35 36 35 32 31 30 30 31 32 31 31 32 33 36 39 41 42 46 48 48 47 46 45 43 41 40 38 37 36 35 34 33 33 33 33 36 40 38
36 37 37 37 36 37 40 40 37 37 37 37 38 38 35 34 32 30 30 31 32 33 34 35 36 38 40 42 45 48 50 50 50 49 48 46 44 42 41 40 39 38 39 38 37 35 35 37 42
37 38 37 39 39 39 40 43 42 41 39 39 39 40 40 39 37 36 35 34 34 33 35 37 37 38 40 42 45 47 51 52 53 53 52 51 50 48 47 45 44 43 43 43 43 42 40 38 39
Wind_Direction
260 254 254 254 252 252 252 251 250 252 253 253 253 251 248 250 249 249 248 252 254 255 254 253 257 259 258 257 259 271 277 285 297 305 308 289 271 254 222 233 214 217 229 244 237 219 185 159 122
259 255 251 251 252 255 256 253 253 255 256 257 256 255 251 248 249 249 247 247 252 254 256 255 251 250 250 253 257 260 269 278 284 289 289 283 259 247 226 216 221 219 216 224 229 208 183 138 139
256 251 247 249 248 250 259 264 263 257 254 255 255 254 252 250 246 247 247 246 247 250 252 251 251 244 248 251 256 265 273 272 274 277 267 261 249 231 217 201 201 219 230 222 213 172 163 143 136
259 247 239 244 248 255 263 265 269 264 262 257 254 250 250 248 249 246 246 246 245 246 249 246 247 246 245 249 252 260 269 274 273 264 252 248 227 212 213 207 205 210 214 197 177 171 152 144 144
257 242 236 241 249 258 260 262 260 266 259 262 263 256 251 250 246 245 242 243 241 244 248 249 247 245 249 250 251 249 255 270 271 254 241 230 218 210 207 215 208 204 192 187 169 156 155 151 147
260 243 237 240 245 246 248 255 257 260 272 278 276 272 256 245 243 241 238 241 241 242 246 247 243 243 245 248 251 249 254 265 270 252 231 214 206 204 206 212 201 194 186 172 163 159 158 155 153
266 255 250 251 257 258 249 251 257 264 271 280 281 278 266 247 238 233 234 236 238 239 242 242 242 240 242 242 247 250 257 262 260 240 228 212 202 199 202 204 195 182 172 168 165 163 159 157 156
275 260 256 260 257 257 261 264 265 271 273 267 264 265 259 247 236 229 231 231 233 235 236 235 238 237 236 237 242 245 249 253 247 231 222 212 206 202 199 195 183 176 171 171 168 166 164 162 160
292 271 258 251 251 252 257 264 263 266 267 258 251 248 243 236 230 224 230 230 230 230 228 225 224 226 232 231 236 237 240 242 238 225 217 215 209 201 195 187 180 176 173 174 172 172 170 169 165
326 299 268 261 265 267 267 270 274 272 267 255 252 237 231 223 220 218 227 230 226 224 221 219 215 216 220 225 230 233 230 236 231 224 217 214 211 203 193 182 180 178 174 176 178 176 178 175 174
331 322 312 289 278 279 284 289 287 286 274 261 248 225 220 215 216 222 224 224 219 213 213 214 212 212 211 216 223 233 231 234 233 228 221 214 208 199 188 182 179 179 178 179 183 183 184 183 180
352 329 320 313 302 296 304 307 302 288 281 264 239 209 209 210 209 222 223 223 216 216 214 219 215 216 217 219 222 227 233 230 232 228 222 209 200 192 184 182 180 180 185 185 186 189 190 190 185
8 355 335 329 319 318 312 313 298 298 311 280 251 207 204 203 208 214 220 224 221 217 218 223 223 220 222 225 233 234 236 235 235 227 219 207 199 190 185 183 182 184 190 192 192 194 197 198 195
353 360 355 345 341 325 323 321 301 315 305 265 234 204 201 200 204 213 219 220 222 221 219 224 228 224 227 232 238 241 241 240 237 230 219 207 200 192 187 185 183 188 195 195 199 203 207 204 204
339 349 358 353 344 339 335 327 322 329 323 263 211 200 200 201 199 211 219 222 223 224 223 223 228 226 227 230 235 242 246 246 241 233 220 211 202 195 189 186 186 190 197 200 203 210 212 210 209
324 334 347 350 351 352 347 344 346 315 303 221 201 203 207 203 205 213 220 226 225 227 229 227 227 227 229 230 232 238 245 249 247 238 223 214 206 199 193 189 192 193 200 205 208 215 216 216 216
317 318 324 330 346 352 343 348 316 304 279 216 203 212 210 206 206 212 210 221 227 230 232 233 231 229 229 230 232 236 241 246 248 241 229 218 210 204 198 193 195 203 208 212 218 222 222 220 221
315 316 316 317 325 332 323 326 319 316 292 255 211 216 219 217 220 220 220 226 238 236 236 234 236 232 229 229 230 232 234 238 243 242 232 226 216 209 202 196 194 200 211 218 223 225 224 223 222
320 327 322 321 313 310 305 301 302 301 297 278 238 218 221 223 224 228 230 228 229 243 245 235 235 234 230 231 234 237 239 243 249 253 247 239 226 216 208 201 200 207 214 221 227 228 227 227 227
309 319 322 325 321 307 294 286 291 288 281 278 266 229 224 226 227 229 233 236 242 247 248 245 237 234 232 231 235 240 241 240 239 246 249 238 225 216 212 206 208 213 220 228 232 232 231 231 232
301 304 308 309 310 311 306 296 284 282 279 264 256 246 232 230 228 232 235 238 244 246 249 249 244 235 233 232 234 239 241 238 243 253 242 234 231 226 221 216 216 221 228 234 235 234 236 236 235
294 299 301 302 302 304 304 303 295 281 273 269 262 252 243 240 233 232 233 236 241 244 246 246 246 237 232 232 233 236 239 235 241 253 247 240 238 234 230 225 225 228 233 237 238 238 238 238 237
287 290 293 295 297 297 297 298 294 292 284 271 267 261 255 247 244 239 239 242 243 243 246 245 245 241 233 232 232 236 237 234 235 249 253 254 249 239 235 234 233 235 238 238 237 238 239 240 239
281 284 285 286 290 290 290 291 293 293 285 279 267 262 257 254 247 244 243 242 243 245 245 244 243 239 234 231 234 235 239 237 238 248 255 254 255 252 246 240 240 241 242 241 238 238 239 239 238
282 284 286 284 284 285 285 285 285 287 283 278 275 266 260 257 252 247 242 243 244 246 246 243 241 239 237 233 232 235 238 240 239 242 251 255 259 260 252 248 248 249 249 244 240 240 242 243 241
282 284 284 285 286 285 282 280 281 280 280 276 273 272 270 264 258 253 248 241 240 242 243 242 241 241 243 237 236 236 237 239 241 240 242 248 251 255 261 263 259 255 252 251 246 242 244 243 241
284 285 284 282 281 281 281 280 279 278 276 276 276 275 276 274 266 258 253 249 240 238 239 240 242 243 244 241 237 237 239 241 242 243 241 246 249 248 250 255 263 266 263 257 252 247 245 245 242
286 285 284 282 281 279 279 279 278 278 276 274 275 277 276 274 274 268 260 253 248 243 238 238 241 242 243 243 239 237 239 241 244 246 245 243 247 250 250 250 250 253 259 264 263 257 251 247 247
285 285 284 283 281 281 281 279 277 273 272 272 271 271 272 269 269 269 269 262 256 251 246 241 238 239 240 241 239 238 239 241 242 246 250 249 246 247 250 251 252 252 253 254 257 259 258 256 251
286 285 284 282 281 279 277 276 277 275 270 268 266 266 267 268 266 266 267 266 263 259 256 253 249 244 240 238 239 239 240 242 243 244 247 251 252 250 249 250 251 252 252 252 254 253 252 253 254